User: anonymous   Login
Location: B
(0.0000°N, 0.0000°E)
Time: 16:10:31
(UTC+02:00)
Language:

Cosmos 1025 Rocket - Orbit

View from above orbital plane
View from above orbital plane
View from above satellite
View from above satellite

Ground track
Ground track

The orbit data is extracted from the following two-line orbital elements,

1 10974U 78067B   16151.52949473  .00000144  00000-0  13290-4 0  9994
2 10974  82.4811 171.5857 0017789 166.3970 193.7730 14.87157454 50680
Epoch (UTC): 30 May 2016 12:42:28
Eccentricity: 0.0017789
inclination: 82.4811°
perigee height: 594 km
apogee height: 619 km
right ascension of ascending node: 171.5857°
argument of perigee: 166.3970°
revolutions per day: 14.87157454
mean anomaly at epoch: 193.7730°
orbit number at epoch: 5068

The dashed part of the orbit path shows where the satellite is in the earth's shadow,  

DLR